Wind_Speed
8 5 5 5 3 3 6 8 9 10 10 10 10 11 11 10 10 10 11 12 12 12 12 13 14 15 16 16 17 17 16 17 16 16 17 16 16 15 15 13 12 12 12 12 13 14 15 16 15
17 8 4 1 1 2 5 6 8 10 11 12 12 13 14 13 13 13 14 14 15 18 18 17 17 17 19 20 20 20 20 19 19 17 17 17 17 17 15 14 12 12 13 15 15 14 15 15 14
19 16 13 11 3 7 8 7 9 12 13 15 16 15 15 15 15 15 16 18 17 17 18 16 18 20 20 20 21 21 21 22 22 22 20 19 18 18 16 15 13 13 14 14 14 14 14 12 12
17 15 14 12 9 8 7 8 11 11 11 13 14 15 16 19 19 19 19 20 19 20 21 20 20 21 20 20 20 21 21 22 22 22 21 20 19 20 19 17 15 14 14 14 13 12 12 14 15
13 14 13 12 9 8 8 10 13 13 12 11 10 13 17 20 22 22 21 23 23 22 22 25 29 28 25 23 23 24 24 22 23 20 18 19 19 20 20 20 18 16 14 14 14 14 15 15 17
16 11 11 12 11 11 10 8 9 14 15 13 13 13 15 18 20 23 24 25 27 29 30 29 27 26 24 25 24 23 23 21 21 20 19 18 18 19 20 20 19 18 17 16 16 17 18 18 18
19 16 15 9 9 11 14 13 13 15 16 17 17 16 17 17 16 18 21 23 25 26 27 27 26 26 24 22 22 23 24 24 23 22 20 21 20 21 20 21 20 20 20 19 18 19 19 21 21
21 20 17 15 13 13 13 15 17 18 19 20 21 20 20 21 20 20 22 24 27 28 28 26 25 24 26 26 25 25 25 26 25 25 22 22 22 22 23 23 23 23 23 23 21 21 21 22 23
20 20 19 17 16 18 17 17 17 20 22 24 25 26 23 21 24 22 22 24 25 27 30 29 28 27 26 27 27 27 26 26 26 25 25 25 24 23 25 26 25 27 28 26 23 23 24 24 25
22 22 20 20 21 19 21 22 22 19 19 26 29 28 28 26 24 24 25 27 27 27 27 29 29 30 29 28 26 25 25 24 24 25 26 26 27 27 27 27 29 31 29 28 27 24 24 24 25
22 23 24 25 25 24 25 25 26 25 19 28 30 33 32 31 31 29 28 28 29 30 30 32 31 29 30 31 30 27 25 25 25 24 24 24 27 29 29 29 29 32 31 28 25 25 25 23 23
22 25 25 27 28 29 30 29 32 30 28 33 34 37 36 34 30 32 33 31 31 31 33 33 35 34 33 32 33 32 30 28 28 28 24 24 24 27 30 32 32 33 31 28 25 25 24 23 22
29 30 31 31 31 34 34 33 35 30 36 37 38 39 40 40 34 36 37 38 35 34 37 36 38 37 38 36 35 35 34 32 29 29 29 26 24 24 26 29 32 31 29 28 28 25 28 26 26
32 33 32 29 33 35 35 35 38 41 41 41 40 42 42 41 41 40 40 39 39 39 39 42 40 40 39 39 39 36 36 33 33 30 30 29 26 25 25 25 27 29 28 27 27 27 25 26 26
32 32 32 32 34 36 38 40 43 45 46 46 47 45 43 41 43 46 45 44 42 41 41 42 43 44 41 40 40 40 36 34 32 32 29 29 27 24 25 24 26 26 28 23 28 29 28 29 30
35 36 37 39 42 45 47 46 48 48 48 46 46 47 47 48 48 50 53 52 50 46 44 44 44 44 44 43 41 39 37 34 34 32 30 28 24 23 25 23 23 26 26 27 28 28 29 30 30
42 44 45 47 48 48 47 45 46 49 47 46 48 49 50 53 54 55 55 56 54 51 44 41 44 43 43 43 42 39 39 34 35 32 31 28 25 24 25 26 26 27 27 28 28 28 30 31 31
48 47 46 45 44 46 46 45 46 48 49 51 53 53 53 55 56 56 56 55 53 48 45 39 38 42 41 41 40 39 39 34 34 33 32 29 27 28 27 26 26 26 27 27 27 29 30 31 32
45 47 48 47 49 53 50 49 49 51 54 58 61 60 57 57 58 57 52 50 48 42 36 38 38 38 42 39 39 38 38 37 34 34 33 30 30 29 27 27 26 25 26 26 27 28 30 31 33
51 53 54 53 54 55 53 52 53 56 60 62 62 62 62 60 60 55 48 41 36 35 34 33 38 41 39 37 38 39 39 39 35 35 33 32 32 30 29 27 27 27 26 26 26 28 29 32 32
56 58 58 58 57 58 58 52 54 57 58 60 60 60 60 61 59 50 39 33 34 33 37 40 39 41 38 37 37 37 40 40 33 34 36 34 32 32 31 28 28 29 26 26 26 28 30 31 31
57 60 61 61 61 60 61 60 55 56 57 57 57 54 51 51 52 50 36 33 35 40 45 46 46 43 40 38 34 35 38 38 33 35 37 33 33 34 31 29 27 28 26 27 28 29 29 29 31
58 60 62 63 64 64 63 64 55 57 58 55 55 49 41 38 43 47 44 34 35 36 43 45 43 39 42 37 35 34 36 36 33 35 34 32 34 33 31 29 27 27 26 27 28 27 27 29 32
58 60 61 62 63 66 60 60 59 55 52 49 46 45 36 31 32 33 34 34 36 32 28 32 27 30 30 35 40 36 35 36 35 32 34 35 34 32 30 30 28 26 26 26 26 25 26 30 33
59 60 62 62 62 61 55 55 56 48 49 46 37 39 34 32 24 25 32 35 35 28 32 28 30 26 23 20 23 47 34 39 41 40 37 36 34 31 30 30 28 26 25 24 23 23 27 30 27
62 58 56 54 53 53 52 55 49 41 40 39 32 30 32 31 30 30 35 33 35 28 32 35 35 30 23 21 21 35 39 39 40 51 42 38 35 31 31 29 27 25 23 21 20 23 25 25 26
56 53 51 51 54 57 55 50 45 40 36 36 31 25 30 33 32 29 30 40 38 37 37 33 39 33 26 23 22 23 34 44 43 31 39 37 34 32 30 27 27 26 19 18 20 21 23 23 21
52 51 48 49 52 54 51 46 45 40 40 39 38 31 32 34 31 31 29 41 38 42 42 39 37 34 31 26 22 23 36 43 39 35 30 31 33 30 27 26 26 21 16 17 17 19 21 19 18
50 47 43 48 47 49 50 47 43 42 43 41 41 41 36 33 37 37 34 36 36 26 29 35 40 38 35 29 24 26 34 35 37 40 37 33 30 27 25 25 23 18 14 15 15 18 18 17 14
48 47 41 46 46 46 47 43 44 39 39 41 42 42 40 40 37 44 46 45 42 39 28 35 38 36 36 32 30 28 30 35 34 38 37 35 29 25 24 22 21 17 13 14 12 17 16 14 10
Wind_Direction
76 86 119 158 147 198 172 182 191 206 213 217 232 246 254 264 274 273 268 274 276 272 274 277 279 281 283 283 283 281 282 285 284 283 284 283 281 282 284 284 285 292 295 296 295 298 300 300 301
43 59 54 102 188 210 211 205 230 247 254 257 256 267 275 281 278 286 293 293 294 296 295 292 292 294 294 292 291 291 290 286 283 281 280 280 280 280 279 276 277 282 290 295 297 297 301 300 301
28 33 43 35 346 287 291 289 267 257 266 274 276 267 267 274 279 276 278 281 283 282 284 281 285 292 296 293 292 293 293 294 295 292 288 284 280 276 274 272 275 282 286 289 296 298 299 301 306
11 20 26 40 43 21 357 330 318 310 291 278 274 278 272 272 268 266 272 276 278 280 279 278 287 293 295 295 296 295 296 294 292 290 290 292 289 283 277 277 277 278 285 293 293 294 295 299 301
355 355 1 5 15 13 6 344 332 328 326 322 306 286 278 271 270 272 276 282 285 283 282 285 289 290 289 291 296 301 298 288 288 286 286 289 290 283 278 273 277 282 287 291 292 290 296 297 299
338 339 333 335 340 343 330 325 319 317 321 317 313 313 309 297 289 287 289 288 287 287 287 286 286 286 283 284 287 288 287 285 289 288 285 282 280 273 271 271 272 280 284 285 287 288 296 296 297
327 323 319 311 303 307 308 313 311 309 312 313 312 307 301 296 293 295 291 288 285 285 286 288 287 284 283 285 286 285 280 279 281 283 285 285 283 275 269 268 267 271 275 275 278 285 287 291 296
320 318 307 309 305 294 293 295 299 305 307 304 302 303 306 305 300 299 297 297 296 294 295 293 287 286 287 288 283 280 279 277 274 279 283 284 281 278 275 272 271 271 274 277 278 279 283 289 293
308 306 306 306 299 300 297 286 281 287 295 294 292 294 297 299 299 297 291 285 286 292 295 293 289 288 289 287 287 282 280 278 276 275 276 278 281 280 277 275 271 272 272 273 275 278 286 289 293
303 297 297 296 297 292 289 285 286 278 280 287 287 288 291 291 289 293 289 283 282 279 278 280 285 288 282 280 282 283 284 282 281 277 269 271 274 279 279 278 275 274 272 274 278 281 282 284 289
298 297 299 297 297 296 289 285 287 288 291 284 285 287 287 286 290 292 290 281 276 276 275 275 273 269 273 278 276 274 276 279 281 277 278 272 268 271 277 279 277 275 275 274 279 283 282 284 282
295 293 290 286 290 290 291 293 291 298 288 280 286 287 287 287 287 286 283 280 277 276 274 273 271 271 270 269 273 273 271 271 275 278 277 273 272 272 270 274 277 273 273 274 275 276 276 288 292
295 293 290 291 287 284 284 288 288 296 288 293 290 286 283 285 284 279 279 279 275 270 267 266 265 266 267 267 266 269 270 269 269 270 272 274 272 271 273 272 273 275 274 274 277 275 287 287 288
291 290 290 289 286 285 285 287 287 291 293 290 285 284 286 285 282 279 275 273 274 271 269 266 263 262 260 261 263 262 263 266 267 265 267 268 265 267 270 268 270 269 268 271 282 279 286 287 289
285 282 282 283 284 285 286 287 290 290 293 291 289 286 283 280 277 275 273 269 264 264 263 266 265 262 259 256 258 259 258 258 260 262 261 261 262 259 257 258 271 272 281 272 275 283 285 290 293
281 279 281 284 287 289 288 284 284 285 286 285 283 283 281 277 277 279 281 280 276 270 264 259 260 262 262 259 255 259 261 258 254 254 257 260 256 252 254 258 264 268 274 277 281 284 287 289 290
282 278 280 283 284 286 285 285 284 282 282 278 274 274 277 278 279 280 281 279 280 277 268 262 262 262 260 259 259 255 255 255 255 252 252 255 253 251 250 254 259 268 272 279 282 286 288 289 289
283 285 285 286 286 282 283 285 282 278 277 271 268 272 273 273 277 282 282 279 278 279 276 264 261 262 263 259 257 255 255 251 250 253 251 251 248 246 248 253 260 266 272 276 281 285 285 286 287
290 290 290 288 281 282 284 283 279 274 270 270 271 270 271 273 277 282 285 283 282 281 275 269 260 257 258 258 254 252 252 248 247 247 247 247 249 246 247 252 258 263 268 274 279 280 282 286 289
289 288 287 284 281 284 284 285 282 277 275 273 273 273 272 275 280 287 292 285 278 275 265 258 255 254 251 248 249 246 246 248 246 246 244 243 245 248 247 250 258 261 265 270 277 280 285 287 290
285 283 281 280 279 282 283 282 280 276 276 276 277 278 279 278 280 289 292 276 261 258 260 260 252 250 243 239 241 237 241 244 245 245 244 244 245 246 248 248 255 261 267 274 278 281 284 288 291
284 279 279 278 280 281 282 279 276 274 278 280 283 283 281 283 285 292 285 263 257 255 253 253 252 250 246 236 237 236 236 237 236 237 243 245 245 247 249 250 254 261 268 273 275 278 284 289 292
281 277 276 277 277 277 279 281 275 275 280 286 286 283 283 286 293 294 286 259 251 254 253 254 249 249 235 229 228 235 238 238 237 237 241 245 245 248 249 251 253 259 264 266 271 278 284 289 293
280 277 276 276 278 279 284 286 276 275 280 285 283 282 289 289 288 276 255 253 249 255 254 251 239 247 250 224 220 227 235 239 237 239 239 241 243 246 248 251 251 254 259 264 273 280 289 294 296
282 281 280 280 281 285 284 280 281 282 286 282 276 273 285 280 268 268 264 255 240 247 254 249 254 254 264 252 247 225 222 237 235 231 235 238 241 243 244 250 251 252 258 267 277 289 295 300 302
286 284 280 282 285 286 280 276 282 289 287 275 264 264 268 268 266 256 250 242 241 224 245 251 255 255 248 251 260 233 225 233 234 234 229 234 238 239 242 246 249 253 258 269 283 293 299 300 300
285 283 283 283 284 283 280 279 279 287 282 271 256 255 254 259 256 251 252 247 225 223 236 241 251 243 242 246 254 253 242 235 242 227 239 226 228 233 238 241 247 251 258 274 287 297 297 300 298
283 284 284 286 285 281 278 284 287 286 279 269 260 246 245 250 248 246 251 255 231 213 221 233 241 239 246 245 248 242 244 239 237 231 232 223 219 227 233 239 246 251 264 280 291 294 295 297 295
282 280 285 279 275 280 284 285 286 283 277 267 258 250 250 245 242 243 250 257 268 240 214 226 228 237 239 246 250 245 247 244 240 231 228 228 216 224 230 239 246 252 267 277 284 289 290 288 281
279 277 282 277 280 280 280 283 282 280 269 264 259 256 253 252 240 237 243 252 265 263 237 219 227 226 231 242 246 255 262 252 237 227 232 233 222 224 231 238 244 251 261 268 282 285 280 276 255
Height
5874 5874 5875 5876 5879 5877 5876 5877 5877 5878 5879 5880 5880 5881 5882 5882 5883 5886 5884 5883 5883 5882 5880 5880 5880 5880 5879 5878 5878 5877 5876 5876 5875 5875 5875 5875 5874 5873 5874 5873 5872 5872 5872 5871 5871 5870 5870 5870 5868
5876 5876 5876 5875 5878 5877 5877 5876 5877 5878 5878 5878 5879 5879 5879 5880 5880 5881 5882 5882 5882 5882 5881 5880 5879 5878 5877 5877 5877 5876 5875 5873 5872 5871 5870 5870 5870 5870 5869 5870 5869 5868 5869 5869 5868 5867 5867 5866 5866
5876 5876 5876 5876 5875 5876 5876 5875 5876 5876 5876 5876 5877 5876 5875 5876 5876 5877 5877 5876 5876 5877 5877 5877 5876 5876 5875 5874 5874 5873 5872 5872 5871 5870 5868 5867 5867 5867 5866 5866 5866 5867 5866 5866 5865 5865 5864 5863 5863
5877 5877 5877 5876 5876 5876 5875 5874 5873 5873 5874 5874 5874 5874 5873 5873 5873 5872 5872 5873 5873 5872 5872 5871 5871 5871 5871 5871 5870 5869 5869 5869 5868 5867 5866 5865 5865 5865 5864 5865 5864 5864 5865 5863 5862 5861 5862 5861 5860
5878 5877 5876 5875 5874 5873 5873 5872 5872 5872 5873 5873 5872 5872 5871 5869 5869 5869 5869 5869 5869 5869 5868 5868 5867 5866 5866 5866 5866 5866 5866 5864 5864 5863 5863 5862 5862 5862 5862 5862 5863 5862 5861 5860 5859 5859 5858 5857 5858
5876 5877 5876 5874 5873 5872 5871 5870 5870 5869 5869 5869 5869 5869 5868 5867 5867 5866 5867 5866 5864 5863 5862 5861 5862 5862 5861 5861 5860 5861 5862 5861 5861 5861 5860 5858 5858 5858 5857 5858 5858 5858 5857 5857 5856 5857 5856 5855 5854
5875 5874 5873 5872 5872 5871 5869 5868 5868 5867 5867 5867 5867 5867 5866 5864 5863 5863 5863 5862 5861 5860 5859 5857 5856 5855 5854 5855 5855 5855 5857 5858 5857 5857 5857 5857 5856 5855 5854 5853 5853 5853 5852 5852 5852 5853 5852 5852 5850
5871 5870 5869 5869 5869 5868 5867 5866 5865 5864 5863 5863 5862 5862 5861 5861 5860 5860 5858 5857 5855 5854 5853 5853 5852 5852 5851 5851 5850 5850 5850 5852 5853 5853 5853 5853 5853 5851 5851 5850 5850 5848 5848 5848 5848 5848 5848 5848 5846
5866 5866 5865 5865 5865 5864 5863 5862 5863 5862 5860 5859 5857 5857 5857 5857 5856 5855 5854 5852 5850 5850 5849 5847 5847 5847 5847 5846 5847 5845 5845 5846 5847 5847 5849 5849 5849 5847 5847 5846 5845 5844 5843 5843 5844 5844 5844 5844 5843
5864 5862 5861 5860 5860 5859 5858 5856 5855 5856 5855 5852 5851 5852 5852 5852 5853 5852 5850 5848 5845 5843 5842 5841 5842 5842 5842 5841 5841 5841 5841 5841 5840 5841 5842 5843 5843 5843 5843 5841 5841 5839 5839 5839 5838 5839 5839 5839 5839
5858 5858 5858 5857 5856 5855 5854 5852 5851 5850 5852 5847 5845 5843 5845 5846 5845 5846 5844 5842 5840 5837 5836 5834 5833 5833 5834 5835 5835 5835 5836 5836 5836 5835 5836 5837 5837 5837 5837 5837 5836 5834 5832 5834 5834 5834 5834 5834 5833
5853 5851 5850 5848 5849 5849 5849 5849 5847 5847 5844 5838 5838 5835 5835 5836 5838 5837 5834 5834 5833 5833 5830 5828 5826 5827 5827 5827 5828 5829 5830 5830 5830 5830 5830 5830 5830 5831 5831 5831 5831 5829 5827 5829 5829 5829 5829 5829 5828
5849 5847 5845 5844 5843 5841 5842 5841 5840 5840 5834 5834 5833 5829 5826 5824 5827 5825 5825 5825 5824 5824 5820 5821 5819 5820 5820 5820 5820 5821 5822 5823 5823 5823 5824 5824 5824 5824 5824 5824 5825 5824 5822 5823 5822 5824 5824 5823 5823
5842 5841 5840 5839 5837 5837 5837 5834 5831 5828 5828 5826 5823 5820 5820 5819 5816 5814 5813 5812 5813 5813 5814 5811 5812 5812 5812 5813 5813 5813 5813 5814 5816 5816 5817 5818 5818 5819 5819 5818 5818 5819 5819 5819 5819 5820 5818 5818 5817
5832 5833 5832 5829 5828 5828 5827 5828 5824 5822 5819 5816 5812 5810 5808 5806 5804 5800 5796 5798 5799 5799 5800 5802 5804 5802 5804 5803 5803 5804 5806 5807 5807 5809 5810 5811 5812 5812 5812 5813 5811 5811 5813 5813 5814 5813 5813 5812 5811
5822 5823 5823 5821 5818 5816 5815 5819 5812 5808 5807 5805 5802 5800 5798 5792 5790 5788 5787 5787 5787 5788 5790 5790 5791 5793 5795 5795 5793 5796 5798 5800 5801 5801 5802 5803 5805 5805 5806 5807 5806 5807 5808 5808 5808 5807 5806 5805 5805
5813 5812 5812 5811 5809 5806 5803 5806 5801 5795 5794 5793 5788 5784 5783 5782 5779 5778 5776 5775 5774 5774 5777 5780 5782 5782 5783 5785 5787 5788 5788 5794 5795 5795 5796 5797 5798 5799 5800 5801 5801 5803 5803 5802 5802 5801 5801 5800 5798
5801 5800 5800 5799 5799 5793 5793 5793 5789 5783 5781 5777 5773 5773 5770 5768 5766 5764 5762 5761 5761 5763 5765 5769 5771 5772 5774 5775 5778 5780 5782 5785 5787 5788 5789 5791 5791 5793 5793 5794 5795 5796 5797 5796 5796 5795 5794 5794 5792
5791 5789 5788 5787 5783 5778 5781 5779 5776 5770 5765 5761 5759 5757 5756 5756 5754 5752 5750 5748 5748 5750 5753 5757 5759 5763 5763 5767 5769 5771 5774 5775 5779 5780 5780 5783 5785 5786 5786 5787 5788 5789 5790 5790 5790 5790 5788 5787 5786
5776 5775 5774 5774 5768 5764 5767 5769 5766 5759 5753 5748 5742 5740 5742 5741 5740 5738 5737 5738 5738 5740 5742 5745 5749 5750 5753 5756 5759 5762 5763 5765 5770 5772 5773 5773 5777 5779 5779 5779 5782 5782 5783 5783 5783 5783 5781 5780 5778
5763 5760 5757 5755 5755 5753 5749 5754 5752 5745 5739 5734 5729 5727 5726 5727 5728 5727 5727 5726 5727 5729 5730 5734 5738 5740 5742 5744 5747 5751 5754 5756 5761 5765 5766 5767 5770 5771 5773 5773 5774 5775 5776 5776 5776 5775 5773 5772 5771
5749 5744 5741 5738 5736 5738 5735 5733 5740 5733 5725 5722 5719 5717 5716 5716 5715 5717 5718 5716 5718 5719 5721 5723 5725 5730 5733 5734 5737 5742 5744 5747 5750 5754 5757 5761 5762 5764 5767 5767 5767 5768 5769 5769 5768 5767 5766 5765 5763
5733 5727 5725 5722 5718 5716 5719 5710 5727 5718 5712 5710 5706 5703 5705 5707 5708 5709 5707 5706 5707 5709 5711 5713 5716 5720 5721 5724 5728 5731 5734 5738 5741 5745 5749 5753 5755 5757 5760 5761 5761 5762 5763 5763 5762 5760 5759 5757 5755
5715 5711 5708 5705 5703 5699 5706 5695 5704 5707 5702 5699 5695 5693 5694 5695 5697 5698 5696 5696 5697 5700 5702 5703 5705 5709 5709 5711 5715 5721 5726 5729 5733 5738 5741 5744 5747 5750 5753 5755 5756 5756 5757 5756 5755 5753 5752 5750 5748
5702 5697 5691 5689 5688 5688 5690 5680 5681 5690 5689 5687 5687 5685 5684 5685 5686 5688 5687 5687 5688 5693 5695 5696 5700 5703 5705 5708 5709 5709 5717 5720 5725 5728 5732 5736 5739 5744 5746 5749 5751 5750 5750 5749 5748 5746 5745 5742 5740
5684 5683 5678 5670 5672 5675 5675 5667 5670 5673 5675 5675 5674 5675 5675 5675 5676 5677 5679 5678 5681 5683 5688 5691 5694 5698 5701 5701 5701 5705 5709 5712 5715 5717 5723 5728 5732 5737 5740 5743 5745 5744 5743 5743 5741 5740 5739 5736 5735
5670 5667 5666 5658 5655 5651 5662 5660 5658 5661 5661 5662 5663 5662 5663 5665 5667 5669 5669 5669 5669 5674 5680 5684 5687 5691 5694 5696 5697 5698 5702 5703 5704 5706 5715 5717 5724 5729 5734 5736 5738 5739 5737 5736 5735 5734 5733 5731 5730
5653 5653 5652 5646 5641 5636 5643 5646 5644 5648 5648 5648 5650 5649 5649 5653 5656 5658 5658 5658 5657 5662 5669 5675 5680 5684 5686 5688 5689 5692 5694 5696 5701 5708 5713 5712 5716 5723 5727 5730 5732 5732 5729 5729 5729 5728 5728 5727 5725
5640 5638 5637 5633 5629 5626 5628 5635 5633 5632 5633 5633 5633 5636 5638 5640 5643 5647 5647 5647 5649 5652 5659 5665 5670 5675 5678 5680 5683 5685 5686 5689 5695 5701 5705 5707 5711 5716 5721 5724 5726 5725 5724 5724 5723 5724 5724 5722 5721
5627 5625 5623 5619 5618 5614 5613 5623 5618 5618 5615 5616 5619 5621 5623 5626 5629 5632 5637 5635 5642 5646 5647 5655 5662 5666 5669 5673 5676 5679 5681 5682 5687 5692 5697 5701 5707 5711 5715 5718 5720 5720 5719 5719 5719 5720 5720 5719 5718